EDT,Max TemperatureF,Mean TemperatureF,Min TemperatureF,Max Dew PointF,MeanDew PointF,Min DewpointF,Max Humidity, Mean Humidity, Min Humidity, Max Sea Level PressureIn, Mean Sea Level PressureIn, Min Sea Level PressureIn, Max VisibilityMiles, Mean VisibilityMiles, Min VisibilityMiles, Max Wind SpeedMPH, Mean Wind SpeedMPH, Max Gust SpeedMPH,PrecipitationIn, CloudCover, Events, WindDirDegrees
2013-4-1,24,20,16,17,13,7,84,71,57,30.01,29.89,29.61,10,3,0,24,13,35,0.16,8,Fog-Snow,314
2013-4-2,26,19,11,16,13,6,84,70,55,30.19,30.10,29.98,10,6,1,25,11,33,0.01,8,Snow,304
2013-4-3,33,26,19,16,9,3,68,52,35,30.39,30.31,30.19,10,10,9,17,8,23,T,1,,314
2013-4-4,39,32,24,30,26,16,89,74,59,30.22,29.97,29.86,10,6,0,22,10,29,0.17,7,Fog-Snow,238
2013-4-5,32,27,21,22,15,10,75,62,49,30.24,30.16,29.97,10,10,9,21,9,27,T,1,Snow,321
2013-4-6,33,26,18,30,24,13,92,78,63,30.23,29.95,29.67,10,5,0,21,8,30,0.51,7,Fog-Rain-Snow,111
2013-4-7,37,35,32,32,30,26,96,83,70,30.05,29.67,29.42,10,7,2,22,10,30,0.08,8,Rain-Snow,321
2013-4-8,38,35,31,32,28,25,89,77,64,30.05,29.97,29.87,10,9,5,17,6,24,0.06,7,Rain,108
2013-4-9,39,36,33,33,31,29,96,83,70,30.12,30.06,30.01,10,8,1,13,6,19,0.00,8,,294
2013-4-10,42,37,31,27,21,15,78,56,34,30.17,30.14,30.08,10,10,10,16,7,21,0.00,1,,12
2013-4-11,37,31,25,19,11,7,63,49,35,30.20,30.10,29.98,10,10,2,20,12,27,0.05,3,Snow,82
2013-4-12,33,29,25,25,22,20,88,76,63,29.98,29.76,29.68,10,3,0,21,9,29,0.44,8,Fog-Snow,71
2013-4-13,37,31,24,27,25,22,92,78,64,29.86,29.73,29.66,10,5,2,14,5,16,0.05,8,Snow,276
2013-4-14,41,35,28,27,24,19,85,65,44,30.08,30.00,29.87,10,9,2,13,6,19,0.01,6,Snow,239
2013-4-15,41,38,34,39,34,23,92,76,59,30.03,29.82,29.77,10,5,0,22,10,33,0.34,8,Fog-Rain,123
2013-4-16,42,36,30,30,28,25,85,72,59,30.32,30.07,29.82,10,10,10,21,10,28,0.00,5,,290
2013-4-17,43,36,29,29,26,24,92,71,49,30.46,30.34,30.16,10,10,10,16,6,22,0.00,2,,94
2013-4-18,43,40,37,40,35,23,93,72,50,30.14,29.69,29.46,10,6,1,16,7,23,0.41,8,Rain,88
2013-4-19,41,32,22,37,29,17,92,78,64,29.54,29.28,29.16,10,7,1,33,15,46,0.22,8,Rain-Snow,210
2013-4-20,29,23,16,16,12,6,71,62,53,30.44,30.05,29.60,10,9,1,22,12,29,0.01,7,Snow,311
2013-4-21,39,28,17,25,17,13,84,60,35,30.63,30.53,30.41,10,10,9,16,8,27,0.00,2,,131
2013-4-22,50,43,35,31,28,24,75,61,46,30.39,30.28,30.16,10,10,10,18,10,24,0.00,7,,124
2013-4-23,43,38,33,39,32,28,89,75,60,30.14,29.92,29.83,10,6,1,20,9,24,0.32,7,Rain-Snow,108
2013-4-24,41,36,31,29,24,16,82,63,44,29.98,29.90,29.84,10,10,10,17,9,23,0.00,5,,311
2013-4-25,39,34,28,33,28,20,92,78,63,30.25,29.99,29.89,10,7,0,21,7,29,0.09,6,Fog-Rain-Snow,59
2013-4-26,49,38,27,36,32,24,92,73,53,30.33,30.27,30.21,10,7,2,21,6,27,0.18,6,Rain,129
2013-4-27,64,49,34,47,39,31,92,72,52,30.23,30.17,30.09,10,9,4,17,7,20,0.00,1,,118
2013-4-28,66,52,38,41,38,35,86,60,34,30.08,29.97,29.85,10,10,8,16,7,23,0.00,1,,102
2013-4-29,55,51,46,48,46,43,93,85,77,29.90,29.86,29.84,10,7,0,7,6,16,0.01,7,Fog-Rain,104
2013-4-30,62,55,47,52,48,45,100,86,72,29.92,29.87,29.81,10,5,0,21,10,30,T,5,Fog,111